Location: Kermapucano
(48.0667°N, 3.3000°W)
Time: 20:31:49
(UTC+00:00)

Cosmos 2082 Rocket - Pass Details

Date: 29 November 2020
Orbit: 831 x 855 km, 71.0° (Epoch: 27 January)

Event Time Altitude Azimuth Distance (km) Brightness Sun altitude
Exits shadow 06:39:30 - 336° (NNW) 3,251 4.8 -9.9°
Reaches altitude 10° 06:41:39 10° 342° (NNW) 2,483 4.3 -9.5°
Maximum altitude 06:47:03 42° 53° (NE) 1,198 3.3 -8.7°
Drops below altitude 10° 06:52:27 10° 124° (SE) 2,482 6.3 -7.9°
Sets 06:55:02 0° 131° (SE) 3,416 7.1 -7.5°
